{"data":{"norad_id":62676,"epoch":"2026-09-22T17:09:53.539200Z","epoch_age_seconds":129172,"freshness":"FRESH","line1":"1 62676U 25009BV  26265.71520300  .00001859  00000+0  85479-4 0  9991","line2":"2 62676  97.3893 342.2424 0005268  15.2900 344.8495 15.21582318 93529","mean_motion":15.21582318,"eccentricity":0.0005268,"inclination_deg":97.3893,"raan_deg":342.2424,"arg_perigee_deg":15.29,"mean_anomaly_deg":344.8495,"bstar":8.5479e-5,"rev_number":9352,"period_min":94.638323734779,"perigee_km":497.44331512446,"apogee_km":504.6912447538,"semimajor_km":6879.2042799391,"source":"CELESTRAK","updated_at":"2026-09-23T09:00:21.547014Z"}}